Hourly Data Report for October 01, 2017

All times are specified in Local Standard Time (LST). Add 1 hour to adjust for Daylight Saving Time where and when it is observed.

GEORGE ISLAND (AUT)
MANITOBA

52°49'07.014" N
97°36'59.028" W
222.50 m
5030984
71445
WWS

Download Data

Hourly Data (October 2017)
Hourly Data Report for October 1, 2017
Temp Definition
°C
Dew Point Temp Definition
°C
Rel Hum Definition
%
Wind Dir Definition
10's deg

Wind Spd Definition
km/h
Visibility Definition
km
Stn Press Definition
kPa
Hmdx Definition


Wind Chill Definition


Weather Definition


TIME
00:00 15.3 11.7 79 16 31   98.08     LegendNANA
01:00 14.9 12.0 83 15 27   98.02     LegendNANA
02:00 14.1 12.3 89 15 26   97.98     LegendNANA
03:00 13.8 12.2 90 14 20   97.89     LegendNANA
04:00 14.0 11.9 88 14 23   97.83     LegendNANA
05:00 13.9 12.0 88 14 21   97.81     LegendNANA
06:00 13.7 12.0 89 14 20   97.76     LegendNANA
07:00 13.7 11.9 89 14 20   97.74     LegendNANA
08:00 13.8 11.8 88 14 19   97.76     LegendNANA
09:00 14.2 11.7 85 15 20   97.76     LegendNANA
10:00 14.4 11.6 83 15 25   97.78     LegendNANA
11:00 14.9 11.8 82 15 20   97.75     LegendNANA
12:00 15.3 12.0 81 15 18   97.72     LegendNANA
13:00 16.4 12.2 77 15 23   97.67     LegendNANA
14:00 16.2 12.1 77 15 24   97.63     LegendNANA
15:00 15.9 12.3 79 16 22   97.59     LegendNANA
16:00 15.5 12.3 81 17 27   97.60     LegendNANA
17:00 15.2 12.5 84 17 22   97.61     LegendNANA
18:00 14.8 12.7 87 15 16   97.64     LegendNANA
19:00 14.5 12.9 90 15 11   97.66     LegendNANA
20:00 14.1 13.1 93 15 14   97.64     LegendNANA
21:00 13.7 13.1 96 12 15   97.63     LegendNANA
22:00 13.6 13.1 97 13 13   97.62     LegendNANA
23:00 13.7 13.1 97 14 9   97.63     LegendNANA

Notes on Data Quality.

Legend

  • E = Estimated
  • M = Missing
  • NA = Not Available
  • ‡ = Partner data that is not subject to review by the National Climate Archives
Date modified: